GW3011 Weather Reports


time (UTC)temp
F
wind
direction
speed
knots
gust
knots
rain 1hr
in
rain 24hr
in
rain mn
in
humidity
%
barometer
mb
20260508004815 61 296 0.9 0.9 0.00 0.00 0.00 36 1007.9
20260508004311 61 301 0.9 0.9 0.00 0.00 0.00 37 1007.6
20260508003807 61 296 1.7 1.7 0.00 0.00 0.00 36 1007.9
20260508003305 61 302 0.9 0.9 0.00 0.00 0.00 36 1007.7
20260508002801 61 297 0.9 0.9 0.00 0.00 0.00 35 1007.7
20260508002258 61 305 0.9 0.9 0.00 0.00 0.00 36 1007.6
20260508001754 61 288 1.7 2.6 0.00 0.00 0.00 36 1007.6
20260508001250 61 331 0.9 1.7 0.00 0.00 0.00 36 1007.7
20260508000746 61 297 0.9 1.7 0.00 0.00 0.00 35 1007.3
20260508000244 61 294 2.6 2.6 0.00 0.00 0.00 35 1007.5
20260507235740 61 301 0.0 0.0 0.00 0.00 0.00 36 1007.5
20260507235238 61 304 0.0 0.0 0.00 0.00 0.00 36 1007.2
20260507234734 62 301 0.9 0.9 0.00 0.00 0.00 35 1007.5
20260507234231 62 304 1.7 1.7 0.00 0.00 0.00 35 1007.3
20260507233727 62 300 0.0 0.0 0.00 0.00 0.00 35 1007.4
20260507233225 62 286 1.7 2.6 0.00 0.00 0.00 35 1007.1
20260507232722 63 306 0.9 0.9 0.00 0.00 0.00 34 1006.9
20260507232219 63 298 2.6 2.6 0.00 0.00 0.00 34 1007.1
20260507231716 63 292 0.9 1.7 0.00 0.00 0.00 34 1006.8
20260507231213 63 279 1.7 2.6 0.00 0.00 0.00 34 1007.1
20260507230710 62 294 1.7 2.6 0.00 0.00 0.00 34 1007.0
20260507230207 62 304 2.6 3.5 0.00 0.00 0.00 34 1007.1
20260507225706 63 263 1.7 1.7 0.00 0.00 0.00 35 1007.1
20260507225203 63 268 3.5 3.5 0.00 0.00 0.00 34 1007.1
20260507224659 63 301 0.9 0.9 0.00 0.00 0.00 34 1006.9
20260507224155 64 301 2.6 3.5 0.00 0.00 0.00 33 1006.9
20260507223652 64 277 0.9 1.7 0.00 0.00 0.00 33 1007.1
20260507223149 64 299 1.7 1.7 0.00 0.00 0.00 32 1006.9
20260507222646 64 303 3.5 5.2 0.00 0.00 0.00 31 1006.9
20260507222142 65 289 2.6 3.5 0.00 0.00 0.00 32 1007.0
20260507221638 65 253 1.7 2.6 0.00 0.00 0.00 32 1006.9
20260507221135 65 284 1.7 1.7 0.00 0.00 0.00 33 1006.9
20260507220632 65 304 3.5 5.2 0.00 0.00 0.00 33 1006.9
20260507220130 65 298 2.6 3.5 0.00 0.00 0.00 33 1007.1
20260507215626 66 253 3.5 3.5 0.00 0.00 0.00 33 1006.7
20260507215123 64 279 2.6 2.6 0.00 0.00 0.00 33 1007.1
20260507214620 64 278 1.7 1.7 0.00 0.00 0.00 34 1007.1
20260507214117 65 297 1.7 1.7 0.00 0.00 0.00 33 1006.9
20260507213613 65 187 2.6 3.5 0.00 0.00 0.00 34 1006.9
20260507213110 66 282 0.9 1.7 0.00 0.00 0.00 33 1006.8
20260507212606 64 283 1.7 1.7 0.00 0.00 0.00 34 1006.6
20260507212103 64 233 2.6 3.5 0.00 0.00 0.00 35 1006.9
20260507211600 66 270 1.7 2.6 0.00 0.00 0.00 34 1006.7
20260507211055 65 297 3.5 3.5 0.00 0.00 0.00 34 1006.4
20260507210553 66 271 1.7 2.6 0.00 0.00 0.00 33 1006.6
20260507210050 65 303 0.9 1.7 0.00 0.00 0.00 33 1006.4
20260507205546 65 269 3.5 3.5 0.00 0.00 0.00 34 1006.7
20260507205043 65 306 2.6 2.6 0.00 0.00 0.00 35 1006.7
20260507204539 67 270 1.7 1.7 0.00 0.09 0.09 33 1006.6
20260507204037 65 306 1.7 2.6 0.00 0.09 0.09 33 1006.7
20260507203535 65 286 0.9 0.9 0.00 0.09 0.09 33 1006.8
20260507203032 66 292 1.7 1.7 0.00 0.09 0.09 32 1006.8
20260507202527 66 242 2.6 3.5 0.00 0.09 0.09 33 1006.9
20260507202024 65 247 1.7 2.6 0.00 0.09 0.09 34 1006.9
20260507201520 66 289 0.9 1.7 0.00 0.09 0.09 33 1006.7
20260507201016 66 197 3.5 3.5 0.00 0.09 0.09 33 1006.7
20260507200511 65 294 3.5 6.1 0.00 0.09 0.09 33 1006.8
20260507200008 64 295 2.6 5.2 0.00 0.09 0.09 34 1006.8
20260507195505 64 250 1.7 2.6 0.00 0.09 0.09 35 1006.8
20260507195003 65 311 0.9 1.7 0.00 0.09 0.09 34 1006.8
20260507194459 65 277 3.5 3.5 0.00 0.09 0.09 33 1007.0
20260507193955 64 194 4.3 5.2 0.00 0.09 0.09 33 1007.0
20260507193452 63 294 2.6 2.6 0.00 0.09 0.09 34 1007.3
20260507192949 64 287 6.1 9.6 0.00 0.09 0.09 32 1007.0
20260507192444 64 294 4.3 6.1 0.00 0.09 0.09 33 1007.0
20260507191942 64 270 0.9 1.7 0.00 0.09 0.09 34 1007.0
20260507191438 63 296 2.6 3.5 0.00 0.09 0.09 35 1007.3
20260507190935 65 291 3.5 3.5 0.00 0.09 0.09 34 1007.2
20260507190432 64 246 2.6 3.5 0.00 0.09 0.09 36 1007.4
20260507185931 64 291 0.0 0.0 0.00 0.09 0.09 33 1007.7
20260507185428 64 299 5.2 7.0 0.00 0.09 0.09 34 1007.6
20260507184924 64 299 3.5 3.5 0.00 0.09 0.09 33 1007.4
20260507184422 65 314 3.5 3.5 0.00 0.09 0.09 33 1007.6
20260507183920 63 308 1.7 1.7 0.00 0.09 0.09 34 1007.7
20260507183416 64 303 0.9 0.9 0.00 0.09 0.09 34 1007.6
20260507182914 64 305 0.9 0.9 0.00 0.09 0.09 34 1007.7
20260507182409 63 300 1.7 2.6 0.00 0.09 0.09 34 1007.7
20260507181906 62 204 1.7 3.5 0.00 0.09 0.09 35 1007.8
20260507181402 62 278 3.5 3.5 0.00 0.09 0.09 34 1007.9
20260507180859 62 303 3.5 3.5 0.00 0.09 0.09 34 1007.8
20260507180355 62 305 5.2 6.1 0.00 0.09 0.09 34 1008.2
20260507175852 62 184 1.7 2.6 0.00 0.09 0.09 34 1008.3
20260507175349 62 278 2.6 2.6 0.00 0.09 0.09 33 1008.4
20260507174846 62 138 3.5 5.2 0.00 0.09 0.09 34 1008.5
20260507174343 63 313 2.6 2.6 0.00 0.09 0.09 33 1008.3
20260507173841 62 214 1.7 3.5 0.00 0.09 0.09 35 1008.2
20260507173338 64 280 2.6 3.5 0.00 0.09 0.09 34 1008.4
20260507172834 63 274 2.6 2.6 0.00 0.09 0.09 36 1008.4
20260507172331 61 301 2.6 2.6 0.00 0.09 0.09 35 1008.5
20260507171826 63 282 3.5 3.5 0.00 0.09 0.09 33 1008.6
20260507171324 61 306 0.9 1.7 0.00 0.09 0.09 35 1008.5
20260507170821 61 289 4.3 5.2 0.00 0.09 0.09 34 1008.7
20260507170317 61 290 4.3 6.1 0.00 0.09 0.09 34 1008.8
20260507165813 62 288 4.3 5.2 0.00 0.09 0.09 36 1008.9
20260507165309 62 313 0.9 1.7 0.00 0.09 0.09 36 1009.0
20260507164805 61 237 4.3 5.2 0.00 0.09 0.09 34 1008.9
20260507164303 61 324 0.9 1.7 0.00 0.09 0.09 35 1009.0
20260507163800 61 252 1.7 2.6 0.00 0.09 0.09 36 1008.9
20260507163258 62 323 1.7 1.7 0.00 0.09 0.09 33 1009.0
20260507162753 62 298 2.6 3.5 0.00 0.09 0.09 33 1009.1
20260507162249 61 279 1.7 1.7 0.00 0.09 0.09 35 1008.9
20260507161747 62 287 5.2 6.1 0.00 0.09 0.09 34 1009.3
20260507161243 61 250 2.6 2.6 0.00 0.09 0.09 36 1009.5
20260507160739 62 311 1.7 2.6 0.00 0.09 0.09 35 1009.7
20260507160236 62 308 1.7 1.7 0.00 0.09 0.09 34 1009.5
20260507155731 61 273 2.6 3.5 0.00 0.09 0.09 37 1009.6
20260507155227 60 308 2.6 3.5 0.00 0.09 0.09 37 1009.5
20260507154724 59 264 2.6 3.5 0.00 0.09 0.09 38 1009.6
20260507154222 59 216 3.5 3.5 0.00 0.09 0.09 37 1009.8
20260507153718 59 292 4.3 6.1 0.00 0.09 0.09 36 1009.8
20260507153215 60 280 1.7 2.6 0.00 0.09 0.09 36 1009.6
20260507152711 59 298 2.6 2.6 0.00 0.09 0.09 36 1009.7
20260507152207 59 353 1.7 3.5 0.00 0.09 0.09 37 1010.1
20260507151704 60 322 1.7 2.6 0.00 0.09 0.09 38 1010.0
20260507151200 59 239 2.6 2.6 0.00 0.09 0.09 40 1010.0
20260507150657 60 288 5.2 6.1 0.00 0.09 0.09 38 1010.1
20260507150154 59 289 3.5 5.2 0.00 0.09 0.09 39 1009.9
20260507145650 59 191 4.3 5.2 0.00 0.09 0.09 41 1009.9
20260507145147 59 287 1.7 1.7 0.00 0.09 0.09 42 1010.0
20260507144643 59 260 2.6 5.2 0.00 0.09 0.09 42 1010.0
20260507144142 59 297 2.6 2.6 0.00 0.09 0.09 46 1010.4
20260507143638 59 273 3.5 5.2 0.00 0.09 0.09 48 1010.4
20260507143135 59 286 2.6 6.1 0.00 0.09 0.09 50 1010.3
20260507142630 58 336 0.0 0.0 0.00 0.09 0.09 48 1010.1
20260507142128 58 300 2.6 2.6 0.00 0.09 0.09 48 1010.1
20260507141624 58 273 1.7 2.6 0.00 0.09 0.09 57 1010.0
20260507141121 58 216 2.6 2.6 0.00 0.09 0.09 57 1010.3
20260507140617 58 196 3.5 5.2 0.00 0.09 0.09 59 1010.3
20260507140115 57 241 3.5 5.2 0.00 0.09 0.09 62 1010.1
20260507135612 55 284 3.5 3.5 0.00 0.09 0.09 63 1010.0
20260507135109 54 312 1.7 1.7 0.00 0.09 0.09 67 1010.2
20260507134605 54 276 2.6 3.5 0.00 0.09 0.09 67 1010.0
20260507134101 55 292 0.9 1.7 0.00 0.09 0.09 67 1010.0
20260507133557 57 298 0.9 1.7 0.00 0.09 0.09 67 1010.4
20260507133055 54 307 0.0 0.9 0.00 0.09 0.09 71 1010.4
20260507132552 55 289 1.7 1.7 0.00 0.09 0.09 71 1010.3
20260507132048 54 301 1.7 2.6 0.00 0.09 0.09 71 1010.3
20260507131545 54 297 2.6 2.6 0.00 0.09 0.09 73 1010.1
20260507131043 53 206 3.5 3.5 0.00 0.09 0.09 74 1010.2
20260507130539 53 283 2.6 2.6 0.00 0.09 0.09 75 1010.2
20260507130038 53 285 1.7 1.7 0.00 0.09 0.09 77 1010.3
20260507125536 53 284 2.6 3.5 0.00 0.09 0.09 77 1010.5
20260507125033 54 305 0.0 0.9 0.00 0.09 0.09 77 1010.3
20260507124529 53 241 3.5 6.1 0.00 0.09 0.09 77 1010.3
20260507124027 54 314 1.7 1.7 0.00 0.09 0.09 77 1010.3
20260507123525 52 193 1.7 2.6 0.00 0.09 0.09 78 1010.4
20260507123021 51 263 1.7 1.7 0.00 0.09 0.09 80 1010.3
20260507122516 51 248 3.5 3.5 0.00 0.09 0.09 80 1010.3
20260507122013 51 289 1.7 2.6 0.00 0.09 0.09 80 1010.3
20260507121508 51 292 2.6 3.5 0.00 0.09 0.09 80 1010.6
20260507121004 51 240 2.6 3.5 0.00 0.09 0.09 80 1010.3
20260507120501 51 244 1.7 1.7 0.00 0.09 0.09 80 1010.5
20260507115958 51 311 2.6 3.5 0.00 0.09 0.09 80 1010.3
20260507115454 52 253 3.5 5.2 0.00 0.09 0.09 80 1010.3
20260507114950 51 262 2.6 2.6 0.00 0.09 0.09 80 1010.0
20260507114446 51 301 0.9 0.9 0.00 0.09 0.09 81 1009.9
20260507113944 51 298 1.7 1.7 0.00 0.09 0.09 81 1010.0
20260507113440 51 248 3.5 3.5 0.00 0.09 0.09 81 1009.9
20260507112938 51 293 0.9 1.7 0.00 0.09 0.09 82 1009.8
20260507112435 51 272 2.6 2.6 0.00 0.09 0.09 81 1009.7
20260507111932 51 277 1.7 2.6 0.00 0.09 0.09 82 1009.8
20260507111429 51 287 1.7 1.7 0.00 0.09 0.09 82 1009.6
20260507110925 51 244 1.7 1.7 0.00 0.09 0.09 83 1009.4
20260507110422 51 260 1.7 1.7 0.00 0.09 0.09 82 1009.6
20260507105919 51 306 1.7 1.7 0.00 0.09 0.09 82 1009.5
20260507105415 51 293 1.7 1.7 0.00 0.09 0.09 83 1009.4
20260507104912 51 305 1.7 1.7 0.00 0.09 0.09 82 1009.4
20260507104409 51 317 1.7 2.6 0.00 0.09 0.09 82 1009.2
20260507103904 51 301 0.9 1.7 0.00 0.09 0.09 83 1009.4
20260507103402 51 306 0.9 0.9 0.00 0.09 0.09 84 1009.3
20260507102857 51 303 1.7 2.6 0.00 0.09 0.09 84 1009.3
20260507102354 51 285 1.7 2.6 0.00 0.09 0.09 86 1009.2
20260507101850 51 279 3.5 3.5 0.00 0.09 0.09 86 1009.2
20260507101345 51 301 1.7 2.6 0.00 0.09 0.09 86 1009.1
20260507100842 51 202 1.7 1.7 0.00 0.09 0.09 88 1008.9
20260507100340 50 294 1.7 1.7 0.00 0.09 0.09 87 1008.7
20260507095838 50 282 0.9 1.7 0.00 0.09 0.09 89 1008.8
20260507095334 51 218 2.6 3.5 0.00 0.09 0.09 89 1008.8
20260507094832 51 274 0.0 0.9 0.00 0.09 0.09 89 1008.7
20260507094328 50 271 1.7 1.7 0.00 0.09 0.09 89 1008.7
20260507093825 50 293 1.7 1.7 0.00 0.09 0.09 89 1008.8
20260507093324 50 260 2.6 3.5 0.00 0.09 0.09 88 1008.6
20260507092821 50 271 1.7 1.7 0.05 0.09 0.09 89 1008.6
20260507092318 50 299 2.6 2.6 0.05 0.09 0.09 91 1008.7
20260507091814 50 295 1.7 1.7 0.00 0.08 0.08 91 1008.5
20260507091310 50 293 0.9 1.7 0.00 0.08 0.08 91 1008.6
20260507090805 50 276 0.9 1.7 0.00 0.08 0.08 91 1008.7
20260507090302 50 227 1.7 3.5 0.00 0.08 0.08 91 1008.9
20260507085759 50 281 1.7 1.7 0.00 0.08 0.08 90 1008.6
20260507085256 50 292 2.6 3.5 0.00 0.08 0.08 90 1008.6
20260507084754 50 298 2.6 2.6 0.00 0.08 0.08 90 1008.3
20260507084249 50 278 1.7 1.7 0.00 0.08 0.08 90 1008.9
20260507083747 50 243 3.5 3.5 0.00 0.08 0.08 88 1008.7
20260507083244 51 269 3.5 3.5 0.00 0.08 0.08 88 1008.7
20260507082740 50 237 1.7 2.6 0.00 0.08 0.08 89 1008.6
20260507082236 50 299 4.3 5.2 0.00 0.08 0.08 87 1008.4
20260507081733 50 300 4.3 6.1 0.00 0.08 0.08 88 1008.3
20260507081229 51 274 3.5 3.5 0.00 0.08 0.08 88 1008.6
20260507080726 50 302 2.6 2.6 0.00 0.08 0.08 89 1008.4
20260507080221 51 267 2.6 2.6 0.00 0.08 0.08 90 1008.5
20260507075717 51 274 2.6 3.5 0.00 0.08 0.08 91 1008.5
20260507075214 51 302 1.7 1.7 0.00 0.08 0.08 91 1009.0
20260507074710 51 260 1.7 1.7 0.00 0.08 0.08 91 1008.6
20260507074209 51 291 0.9 1.7 0.00 0.08 0.08 91 1008.9
20260507073704 51 255 2.6 3.5 0.00 0.08 0.08 91 1008.9
20260507073201 51 295 0.9 0.9 0.00 0.08 0.08 92 1008.8
20260507072659 51 221 3.5 3.5 0.00 0.08 0.08 91 1008.8
20260507072156 51 309 3.5 5.2 0.00 0.08 0.08 90 1009.0
20260507071654 51 245 1.7 2.6 0.00 0.08 0.08 92 1008.5
20260507071149 51 295 0.9 1.7 0.00 0.08 0.08 91 1008.8
20260507070647 51 274 3.5 5.2 0.00 0.08 0.08 92 1008.5
20260507070143 51 250 4.3 5.2 0.07 0.08 0.08 92 1008.6
20260507065640 52 269 3.5 5.2 0.07 0.08 0.08 93 1008.8
20260507065137 52 229 1.7 2.6 0.00 0.07 0.07 94 1008.6
20260507064634 52 284 2.6 2.6 0.00 0.07 0.07 94 1008.1
20260507064133 52 298 1.7 2.6 0.05 0.07 0.07 94 1008.2
20260507063630 52 257 3.5 3.5 0.05 0.07 0.07 93 1008.0
20260507063127 52 292 3.5 3.5 0.07 0.06 0.06 93 1008.2
20260507062624 53 249 3.5 3.5 0.07 0.06 0.06 92 1008.8
20260507062121 53 246 3.5 3.5 0.00 0.05 0.05 90 1008.6
20260507061619 53 228 3.5 3.5 0.07 0.05 0.05 91 1008.6
20260507061117 53 203 2.6 2.6 0.12 0.05 0.05 91 1008.0
20260507060615 53 305 0.9 1.7 0.05 0.04 0.04 90 1007.8
20260507060111 54 291 1.7 1.7 0.07 0.03 0.03 89 1007.6
20260507055606 54 297 1.7 1.7 0.07 0.03 0.03 86 1007.5
20260507055103 55 277 2.6 3.5 0.00 0.02 0.02 82 1008.7
20260507054558 56 293 3.5 3.5 0.00 0.02 0.02 79 1008.1
20260507054056 56 299 1.7 2.6 0.00 0.02 0.02 78 1008.0
20260507053554 56 312 3.5 3.5 0.00 0.02 0.02 76 1008.0
20260507053052 56 291 1.7 2.6 0.00 0.02 0.02 77 1007.8
20260507052550 57 298 2.6 2.6 0.00 0.02 0.02 76 1007.4
20260507052046 56 289 1.7 1.7 0.00 0.02 0.02 78 1007.5
20260507051544 56 282 2.6 5.2 0.00 0.02 0.02 77 1007.4
20260507051040 56 303 3.5 3.5 0.00 0.02 0.02 78 1007.6
20260507050537 56 262 2.6 2.6 0.00 0.02 0.02 79 1007.9
20260507050033 57 246 0.9 1.7 0.00 0.02 0.02 79 1007.9
20260507045530 57 250 1.7 2.6 0.00 0.02 0.02 79 1008.1
20260507045027 57 276 1.7 1.7 0.00 0.02 0.02 79 1008.1
20260507044524 57 283 0.9 1.7 0.00 0.02 0.02 78 1007.9
20260507044021 57 259 1.7 2.6 0.00 0.02 0.02 79 1008.0
20260507043517 57 264 1.7 1.7 0.00 0.02 0.02 79 1007.8
20260507043014 57 279 0.9 1.7 0.00 0.02 0.02 80 1008.0
20260507042510 57 284 1.7 1.7 0.00 0.02 0.02 79 1008.1
20260507042006 57 250 2.6 2.6 0.00 0.02 0.02 79 1008.1
20260507041503 57 250 1.7 1.7 0.00 0.02 0.02 79 1008.4
20260507041000 57 246 1.7 1.7 0.00 0.02 0.02 80 1008.1
20260507040455 57 264 2.6 2.6 0.00 0.02 0.02 80 1008.2
20260507035951 57 262 1.7 2.6 0.00 0.02 0.02 80 1008.1
20260507035448 57 299 0.9 0.9 0.00 0.02 0.02 81 1008.0
20260507034945 58 309 2.6 2.6 0.00 0.02 0.02 80 1008.0
20260507034442 58 236 3.5 3.5 0.00 0.02 0.02 79 1008.1
20260507033940 58 262 3.5 3.5 0.00 0.02 0.02 79 1008.0
20260507033438 58 263 1.7 2.6 0.00 0.02 0.02 79 1008.0
20260507032934 58 290 3.5 5.2 0.00 0.02 0.02 78 1007.9
20260507032431 58 267 6.1 7.8 0.00 0.02 0.02 79 1008.1
20260507031927 59 291 2.6 3.5 0.00 0.02 0.02 81 1008.0
20260507031426 59 297 3.5 3.5 0.00 0.02 0.02 84 1007.8
20260507030921 59 299 1.7 1.7 0.00 0.02 0.02 85 1007.7
20260507030418 59 299 1.7 2.6 0.00 0.02 0.02 87 1007.7
20260507025915 60 286 1.7 2.6 0.00 0.02 0.02 91 1007.7
20260507025412 60 290 0.9 0.9 0.00 0.02 0.02 91 1007.8
20260507024910 60 299 1.7 1.7 0.00 0.02 0.02 91 1007.9
20260507024407 61 282 3.5 5.2 0.00 0.02 0.02 91 1007.9
20260507023903 62 301 2.6 3.5 0.00 0.02 0.02 92 1007.9
20260507023400 62 273 3.5 3.5 0.00 0.02 0.02 92 1007.8
20260507022857 62 271 2.6 2.6 0.00 0.02 0.02 92 1008.0
20260507022354 62 224 1.7 1.7 0.00 0.02 0.02 92 1007.7
20260507021850 62 295 0.9 1.7 0.00 0.02 0.02 93 1007.8
20260507021345 62 257 2.6 2.6 0.00 0.02 0.02 93 1007.7
20260507020843 63 286 0.0 0.9 0.05 0.02 0.02 94 1007.7
20260507020339 63 259 0.0 0.9 0.05 0.02 0.02 93 1007.8
20260507015836 63 266 1.7 1.7 0.07 0.01 0.01 92 1007.5
20260507015335 64 266 3.5 3.5 0.07 0.01 0.01 89 1007.5
20260507014831 66 115 1.7 2.6 0.00 0.00 0.00 83 1007.4
20260507014328 65 226 5.2 6.1 0.00 0.00 0.00 83 1007.2
20260507013824 65 352 2.6 3.5 0.00 0.00 0.00 84 1007.2
20260507013321 65 301 0.0 0.0 0.00 0.00 0.00 84 1007.2
20260507012819 65 45 1.7 1.7 0.00 0.00 0.00 84 1007.6
20260507012314 65 230 1.7 1.7 0.00 0.00 0.00 84 1007.3
20260507011806 65 279 0.0 0.9 0.00 0.00 0.00 84 1007.4
20260507011303 65 310 0.0 0.0 0.00 0.00 0.00 85 1007.1
20260507010802 66 305 0.9 1.7 0.00 0.00 0.00 83 1007.1
20260507010258 66 275 0.9 1.7 0.00 0.00 0.00 83 1007.2
20260507005756 66 262 1.7 2.6 0.00 0.00 0.00 82 1007.0
20260507005252 67 302 0.9 0.9 0.00 0.00 0.00 81 1007.3